Regional Weather Roundup
Issued by NWS

Home | Current Version | Previous Version | Text Only | Print | Product List | Glossary On
Versions: 1 2 3 4 5 6 7 8 9 10 11 12 13 14 15 16 17 18 19 20 21 22 23 24 25 26 27 28 29 30 31 32 33 34 35 36 37 38 39 40 41 42 43 44 45 46 47 48 49 50
370
ASUS44 KJAN 311110
RWRMS

MISSISSIPPI HOURLY WEATHER ROUNDUP
NATIONAL WEATHER SERVICE JACKSON MS
600 AM CDT FRI OCT 31 2014

NOTE: "FAIR: INDICATES FEW OR NO CLOUDS BELOW 12,000 FEET WITH NO
SIGNIFICANT WEATHER AND/OR OBSTRUCTIONS TO VISIBILITY.

MSZ001>002-007>008-010>013-018>021-025>028-034>036-311200-
NORTHWEST MISSISSIPPI

CITY           SKY/WX    TMP DP  RH WIND       PRES   REMARKS
CLARKSDALE     FAIR      54  48  82 NW10      30.02R
CLEVELAND      FAIR      51  49  90 NW5       30.02R
GREENWOOD      CLEAR     48  46  93 VRB3      30.00R
GREENVILLE     CLEAR     53  47  79 NW9       30.02R
GRENADA        FAIR      43  43 100 CALM      29.99S
OLIVE BRANCH   CLEAR     45  45 100 CALM      29.99R
OXFORD         FAIR      43  41  93 CALM      29.99S
TUNICA         SUNNY     52  46  82 NW9       30.01R
$$

MSZ003>006-009-014>017-022>024-029>033-037>039-311200-
NORTHEAST MISSISSIPPI

CITY           SKY/WX    TMP DP  RH WIND       PRES   REMARKS
COLUMBUS AFB   CLEAR     44  42  90 S3        29.98S
CORINTH        FOG       45  43  93 CALM      29.97S VSB 1/4
GOLDN TRIANGLE PTCLDY    48  45  87 NE7       29.98R
STARKVILLE     FAIR      43  41  93 CALM      29.98S
TUPELO         CLEAR     48  44  86 CALM      29.97S
$$

MSZ040-058-311200-
CENTRAL MISSISSIPPI

CITY           SKY/WX    TMP DP  RH WIND       PRES   REMARKS
JACKSON INTL   PTCLDY    45  42  89 S3        30.01S
JACKSON HAWKNS PTCLDY    52  45  77 W8        30.01S
MERIDIAN KEY   MOCLDY    40  39  97 S3        30.00S
MERIDIAN NAS   MOCLDY    43  40  89 CALM      30.00R
RAYMOND        FAIR      46  41  81 CALM      30.02R
VICKSBURG      CLEAR     43  41  93 CALM      30.03S
$$

MSZ059>079-311200-
SOUTH MISSISSIPPI

CITY           SKY/WX    TMP DP  RH WIND       PRES   REMARKS
BROOKHAVEN     FAIR      43  43 100 CALM      30.04R
COLUMBIA         N/A     39  39 100 MISG      30.01S
HATTIESBURG    PTCLDY    43  41  93 CALM      30.02F
MCCOMB         CLEAR     45  42  89 CALM      30.03S
NATCHEZ        CLEAR     46  43  87 CALM      30.05R
PINE BELT      PTCLDY    45  41  87 W3        30.02S
$$

MSZ080>082-311200-
COASTAL MISSISSIPPI

CITY           SKY/WX    TMP DP  RH WIND       PRES   REMARKS
BILOXI         CLEAR     53  44  69 N3        30.01S
PASCAGOULA     CLEAR     40  39  97 CALM      30.02R
GULFPORT       CLEAR     46  43  89 CALM      30.01S
$$



USA.gov is the U.S. government's official web portal to all federal, state and local government web resources and services.